Weather History for GMMZ - March, 2014

Change the Weather History Date:

Sunday, March 2, 2014

  Actual Average Record
Temperature  
Mean Temperature 66 °F -  
Max Temperature 77 °F 72 °F - ()
Min Temperature 54 °F 45 °F - ()
Growing Degree Days 16 (Base 50)    
Moisture  
Dew Point 32 °F    
Average Humidity 28    
Maximum Humidity 38    
Minimum Humidity 8    
Precipitation  
Precipitation 0.00 in 0.01 in - ()
Sea Level Pressure  
Sea Level Pressure 30.03 in    
Wind  
Wind Speed 17 mph ()    
Max Wind Speed 43 mph    
Max Gust Speed 55 mph    
Visibility 7.2 miles    
Events      
T = Trace of Precipitation, MM = Missing Value Source: Averaged Metar Reports

Daily Weather History Graph

Daily Weather History Graph

Search for Another Location

Airport or City:

Trip Planner

Search our weather history database for the weather conditions in past years. The results will help you decide how hot, cold, wet, or windy it might be!

Date:

Astronomy

Mar. 02, 2014 Rise Set
Actual Time 6:53 AM WET 6:26 PM WET
Civil Twilight 6:29 AM WET 6:50 PM WET
Nautical Twilight 6:01 AM WET 7:18 PM WET
Astronomical Twilight 5:33 AM WET 7:46 PM WET
Moon 7:23 AM WET (3/2) 7:57 PM WET (3/2)
Length of Visible Light 12h 21m
Length of Day
11h 33m
New Moon, 2% of the Moon is Illuminated
Mar 2
New Moon
Mar 8
First Quarter
Mar 16
Full
Mar 24
Last Quarter
Mar 30
New

Hourly Weather History & Observations

Time (WET) Temp. Dew Point Humidity Pressure Visibility Wind Dir Wind Speed Gust Speed Precip Events Conditions
12:00 AM 57 °F 31 °F 26%  in 12 mi West 6.9 mph - -   Scattered Clouds
12:00 AM 57.2 °F 32.0 °F 38% 30.09 in 6.2 mi WNW 8.1 mph - N/A   Partly Cloudy
1:00 AM 55.4 °F 30.2 °F 38% 30.09 in 6.2 mi Variable 1.2 mph - N/A   Partly Cloudy
2:00 AM 57.2 °F 30.2 °F 36% 30.09 in 6.2 mi WNW 4.6 mph - N/A   Partly Cloudy
3:00 AM 57 °F 32 °F 26%  in 12 mi NNW 18.4 mph - -   Scattered Clouds
3:00 AM 57.2 °F 32.0 °F 38% 30.06 in 6.2 mi NNW 23.0 mph 40.3 mph N/A   Partly Cloudy
4:00 AM 57.2 °F 32.0 °F 38% 30.06 in 6.2 mi NNW 25.3 mph - N/A   Partly Cloudy
5:00 AM 57.2 °F 30.2 °F 36% 30.06 in 6.2 mi NNW 19.6 mph - N/A   Partly Cloudy
6:00 AM 57 °F 29 °F 23%  in 12 mi WNW 12.7 mph - -   Scattered Clouds
6:00 AM 57.2 °F 30.2 °F 36% 30.06 in 6.2 mi WNW 13.8 mph - N/A   Partly Cloudy
7:00 AM 59.0 °F 32.0 °F 36% 30.06 in 6.2 mi WNW 28.8 mph 41.4 mph N/A   Scattered Clouds
8:00 AM 60.8 °F 33.8 °F 36% 30.06 in 6.2 mi NW 35.7 mph - N/A   Scattered Clouds
9:00 AM 63 °F 33 °F 21%  in 12 mi WNW 42.6 mph - -   Partly Cloudy
9:00 AM 62.6 °F 32.0 °F 32% 30.04 in 6.2 mi WNW 42.6 mph 54.1 mph N/A   Scattered Clouds
10:00 AM 66.2 °F 32.0 °F 28% 30.06 in 5.0 mi NW 39.1 mph 55.2 mph N/A   Scattered Clouds
11:00 AM 69.8 °F 28.4 °F 21% 30.06 in 6.2 mi NW 36.8 mph 51.8 mph N/A   Scattered Clouds
12:00 PM 71 °F 29 °F 11%  in 4 mi NW 38.0 mph - -   Scattered Clouds
12:00 PM 71.6 °F 28.4 °F 20% 30.01 in 3.7 mi NW 38.0 mph 50.6 mph N/A   Partly Cloudy
1:00 PM 75.2 °F 30.2 °F 19% 29.98 in 3.7 mi NW 29.9 mph 41.4 mph N/A   Partly Cloudy
2:00 PM 77.0 °F 28.4 °F 17% 29.98 in 6.2 mi NNW 20.7 mph - N/A   Partly Cloudy
3:00 PM 76 °F 27 °F 8%  in 12 mi NW 13.8 mph - -   Scattered Clouds
3:00 PM 77.0 °F 26.6 °F 16% 29.95 in 6.2 mi NW 13.8 mph - N/A   Partly Cloudy
4:00 PM 77.0 °F 28.4 °F 17% 29.95 in 6.2 mi NNW 18.4 mph - N/A   Partly Cloudy
5:00 PM 75.2 °F 33.8 °F 22% 29.95 in 6.2 mi NNW 18.4 mph - N/A   Partly Cloudy
6:00 PM 70 °F 36 °F 19%  in 12 mi NW 23.0 mph - -   Scattered Clouds
6:00 PM 69.8 °F 37.4 °F 31% 29.98 in 6.2 mi NW 23.0 mph - N/A   Partly Cloudy
7:00 PM 64.4 °F 37.4 °F 37% 30.01 in 6.2 mi WNW 19.6 mph - N/A   Partly Cloudy
8:00 PM 64.4 °F 37.4 °F 37% 30.04 in 6.2 mi NW 19.6 mph - N/A   Partly Cloudy
9:00 PM 64 °F 36 °F 24%  in 12 mi WNW 16.1 mph - -   Scattered Clouds
9:00 PM 64.4 °F 37.4 °F 37% 30.04 in 6.2 mi WNW 16.1 mph - N/A   Partly Cloudy
10:00 PM 62.6 °F 35.6 °F 37% 30.06 in 6.2 mi WSW 10.4 mph - N/A   Partly Cloudy
11:00 PM 60.8 °F 33.8 °F 36% 30.06 in 6.2 mi WSW 11.5 mph - N/A   Partly Cloudy